Time,TemperatureF,DewpointF,PressureIn,WindDirection,WindDirectionDegrees,WindSpeedMPH,WindSpeedGustMPH,Humidity,HourlyPrecipIn,Conditions,Clouds,dailyrainin,SoftwareType,DateUTC
2013-02-27 00:00:00,31.3,28.2,29.57,NNW,331,4.0,32.0,88,0.00,,,0.01,meteohub,2013-02-27 05:00:00,
2013-02-27 00:05:00,31.3,28.2,29.57,NW,314,5.0,26.0,88,0.00,,,0.01,meteohub,2013-02-27 05:05:00,
2013-02-27 00:10:00,31.3,28.4,29.58,NW,314,5.0,26.0,89,0.00,,,0.01,meteohub,2013-02-27 05:10:00,
2013-02-27 00:15:00,31.1,28.0,29.57,NW,314,8.0,28.0,88,0.00,,,0.01,meteohub,2013-02-27 05:15:00,
2013-02-27 00:20:00,30.9,27.9,29.58,NW,314,3.0,36.0,88,0.00,,,0.01,meteohub,2013-02-27 05:20:00,
2013-02-27 00:25:00,30.9,27.1,29.58,NW,314,8.0,36.0,86,0.00,,,0.01,meteohub,2013-02-27 05:25:00,
2013-02-27 00:30:00,30.9,27.5,29.58,NW,314,0.0,36.0,87,0.00,,,0.01,meteohub,2013-02-27 05:30:00,
2013-02-27 00:35:00,30.7,27.7,29.58,NW,314,10.0,25.0,88,0.00,,,0.01,meteohub,2013-02-27 05:35:00,
2013-02-27 00:40:00,30.7,27.9,29.59,NW,314,4.0,21.0,89,0.00,,,0.01,meteohub,2013-02-27 05:40:00,
2013-02-27 00:45:00,30.7,27.9,29.59,NW,314,14.0,20.0,89,0.00,,,0.01,meteohub,2013-02-27 05:45:00,
2013-02-27 00:50:00,30.6,28.0,29.59,NW,314,4.0,17.0,90,0.00,,,0.01,meteohub,2013-02-27 05:50:00,
2013-02-27 00:55:00,30.4,28.0,29.59,NW,314,8.0,17.0,91,0.00,,,0.01,meteohub,2013-02-27 05:55:00,
2013-02-27 01:00:00,30.4,27.9,29.59,NW,314,2.0,17.0,90,0.00,,,0.01,meteohub,2013-02-27 06:00:00,
2013-02-27 01:05:00,30.6,27.7,29.59,NW,314,12.0,30.0,89,0.00,,,0.01,meteohub,2013-02-27 06:05:00,
2013-02-27 01:10:00,30.7,27.7,29.59,NW,314,4.0,31.0,88,0.00,,,0.01,meteohub,2013-02-27 06:10:00,
2013-02-27 01:15:00,30.7,27.7,29.59,NW,314,4.0,32.0,88,0.00,,,0.01,meteohub,2013-02-27 06:15:00,
2013-02-27 01:20:00,30.7,27.7,29.59,NW,314,2.0,32.0,88,0.00,,,0.01,meteohub,2013-02-27 06:20:00,
2013-02-27 01:25:00,30.7,27.3,29.59,NW,314,3.0,32.0,87,0.00,,,0.01,meteohub,2013-02-27 06:25:00,
2013-02-27 01:30:00,30.7,27.3,29.60,NW,314,0.0,23.0,87,0.00,,,0.01,meteohub,2013-02-27 06:30:00,
2013-02-27 01:35:00,30.7,27.7,29.60,NW,314,4.0,18.0,88,0.00,,,0.01,meteohub,2013-02-27 06:35:00,
2013-02-27 01:40:00,30.7,27.7,29.60,NW,314,5.0,18.0,88,0.00,,,0.01,meteohub,2013-02-27 06:40:00,
2013-02-27 01:46:00,30.7,27.7,29.60,NW,314,6.0,18.0,88,0.00,,,0.01,meteohub,2013-02-27 06:46:00,
2013-02-27 01:51:00,30.7,27.9,29.60,NW,314,2.0,18.0,89,0.00,,,0.01,meteohub,2013-02-27 06:51:00,
2013-02-27 01:56:00,30.6,27.7,29.60,NW,314,6.0,16.0,89,0.00,,,0.01,meteohub,2013-02-27 06:56:00,
2013-02-27 02:01:00,30.6,28.0,29.60,NW,314,11.0,15.0,90,0.00,,,0.01,meteohub,2013-02-27 07:01:00,
2013-02-27 02:06:00,30.4,27.9,29.60,NW,314,6.0,15.0,90,0.00,,,0.01,meteohub,2013-02-27 07:06:00,
2013-02-27 02:11:00,30.0,27.7,29.60,NW,314,11.0,25.0,91,0.00,,,0.01,meteohub,2013-02-27 07:11:00,
2013-02-27 02:16:00,30.0,27.7,29.60,NW,314,0.0,25.0,91,0.00,,,0.01,meteohub,2013-02-27 07:16:00,
2013-02-27 02:21:00,29.7,27.3,29.60,NW,314,13.0,25.0,91,0.00,,,0.01,meteohub,2013-02-27 07:21:00,
2013-02-27 02:26:00,29.5,27.5,29.60,NW,314,2.0,24.0,92,0.00,,,0.01,meteohub,2013-02-27 07:26:00,
2013-02-27 02:31:00,29.3,27.3,29.60,NW,314,10.0,24.0,92,0.00,,,0.01,meteohub,2013-02-27 07:31:00,
2013-02-27 02:36:00,29.1,27.3,29.61,NW,314,5.0,24.0,93,0.00,,,0.01,meteohub,2013-02-27 07:36:00,
2013-02-27 02:41:00,28.9,27.0,29.61,NW,314,4.0,19.0,92,0.00,,,0.01,meteohub,2013-02-27 07:41:00,
2013-02-27 02:46:00,28.9,27.0,29.60,NW,314,6.0,17.0,92,0.00,,,0.01,meteohub,2013-02-27 07:46:00,
2013-02-27 02:51:00,28.8,26.4,29.60,NW,314,12.0,17.0,91,0.00,,,0.01,meteohub,2013-02-27 07:51:00,
2013-02-27 02:56:00,28.8,26.4,29.61,NW,314,16.0,25.0,91,0.00,,,0.01,meteohub,2013-02-27 07:56:00,
2013-02-27 03:01:00,28.8,26.4,29.61,NW,314,3.0,32.0,91,0.00,,,0.01,meteohub,2013-02-27 08:01:00,
2013-02-27 03:06:00,28.8,26.2,29.61,NW,314,3.0,32.0,90,0.00,,,0.01,meteohub,2013-02-27 08:06:00,
2013-02-27 03:11:00,28.8,26.2,29.60,NW,314,3.0,32.0,90,0.00,,,0.01,meteohub,2013-02-27 08:11:00,
2013-02-27 03:16:00,28.8,25.9,29.61,NW,314,14.0,25.0,89,0.00,,,0.01,meteohub,2013-02-27 08:16:00,
2013-02-27 03:21:00,28.8,25.7,29.60,NW,314,9.0,25.0,88,0.00,,,0.01,meteohub,2013-02-27 08:21:00,
2013-02-27 03:26:00,28.8,25.7,29.60,NW,314,3.0,26.0,88,0.00,,,0.01,meteohub,2013-02-27 08:26:00,
2013-02-27 03:31:00,28.8,25.7,29.61,NW,314,11.0,26.0,88,0.00,,,0.01,meteohub,2013-02-27 08:31:00,
2013-02-27 03:36:00,28.8,25.3,29.61,NW,314,13.0,26.0,87,0.00,,,0.01,meteohub,2013-02-27 08:36:00,
2013-02-27 03:41:00,28.8,25.7,29.61,NW,314,0.0,21.0,88,0.00,,,0.01,meteohub,2013-02-27 08:41:00,
2013-02-27 03:46:00,28.8,25.7,29.62,NW,314,5.0,21.0,88,0.00,,,0.01,meteohub,2013-02-27 08:46:00,
2013-02-27 03:51:00,28.8,25.7,29.61,NW,314,3.0,21.0,88,0.00,,,0.01,meteohub,2013-02-27 08:51:00,
2013-02-27 03:56:00,28.8,25.7,29.61,NW,314,4.0,15.0,88,0.00,,,0.01,meteohub,2013-02-27 08:56:00,
2013-02-27 04:01:00,28.8,25.7,29.62,NW,314,0.0,14.0,88,0.00,,,0.01,meteohub,2013-02-27 09:01:00,
2013-02-27 04:06:00,28.8,25.7,29.62,NW,314,7.0,23.0,88,0.00,,,0.01,meteohub,2013-02-27 09:06:00,
2013-02-27 04:11:00,28.8,25.7,29.61,NW,314,18.0,23.0,88,0.00,,,0.01,meteohub,2013-02-27 09:11:00,
2013-02-27 04:16:00,28.8,25.7,29.62,NW,314,3.0,23.0,88,0.00,,,0.01,meteohub,2013-02-27 09:16:00,
2013-02-27 04:21:00,28.9,25.9,29.61,NW,314,14.0,25.0,88,0.00,,,0.01,meteohub,2013-02-27 09:21:00,
2013-02-27 04:26:00,28.9,25.9,29.61,NW,314,12.0,31.0,88,0.00,,,0.01,meteohub,2013-02-27 09:26:00,
2013-02-27 04:31:00,28.8,25.7,29.61,NW,314,0.0,31.0,88,0.00,,,0.01,meteohub,2013-02-27 09:31:00,
2013-02-27 04:36:00,28.8,25.7,29.61,NW,314,10.0,31.0,88,0.00,,,0.01,meteohub,2013-02-27 09:36:00,
2013-02-27 04:41:00,28.9,25.9,29.61,NW,314,6.0,29.0,88,0.00,,,0.01,meteohub,2013-02-27 09:41:00,
2013-02-27 04:46:00,28.9,25.9,29.62,NW,314,14.0,29.0,88,0.00,,,0.01,meteohub,2013-02-27 09:46:00,
2013-02-27 04:51:00,28.9,25.9,29.62,NW,314,6.0,27.0,88,0.00,,,0.01,meteohub,2013-02-27 09:51:00,
2013-02-27 04:56:00,28.9,25.9,29.62,NW,314,0.0,25.0,88,0.00,,,0.01,meteohub,2013-02-27 09:56:00,
2013-02-27 05:01:00,28.9,25.9,29.62,NW,314,17.0,25.0,88,0.00,,,0.01,meteohub,2013-02-27 10:01:00,
2013-02-27 05:06:00,28.9,25.9,29.63,NW,314,8.0,24.0,88,0.00,,,0.01,meteohub,2013-02-27 10:06:00,
2013-02-27 05:11:00,28.9,25.9,29.63,NW,314,2.0,24.0,88,0.00,,,0.01,meteohub,2013-02-27 10:11:00,
2013-02-27 05:16:00,28.9,25.9,29.63,NW,314,3.0,24.0,88,0.00,,,0.01,meteohub,2013-02-27 10:16:00,
2013-02-27 05:21:00,28.9,25.9,29.64,NW,314,9.0,21.0,88,0.00,,,0.01,meteohub,2013-02-27 10:21:00,
2013-02-27 05:27:00,28.9,26.1,29.64,NW,314,4.0,19.0,89,0.00,,,0.01,meteohub,2013-02-27 10:27:00,
2013-02-27 05:32:00,28.9,25.9,29.64,NW,314,10.0,19.0,88,0.00,,,0.01,meteohub,2013-02-27 10:32:00,
2013-02-27 05:37:00,28.8,25.9,29.64,NW,314,23.0,23.0,89,0.00,,,0.01,meteohub,2013-02-27 10:37:00,
2013-02-27 05:42:00,28.8,25.7,29.64,NW,314,8.0,23.0,88,0.00,,,0.01,meteohub,2013-02-27 10:42:00,
2013-02-27 05:47:00,28.8,25.9,29.64,NW,314,12.0,23.0,89,0.00,,,0.01,meteohub,2013-02-27 10:47:00,
2013-02-27 05:52:00,28.6,25.7,29.65,NW,314,7.0,23.0,89,0.00,,,0.01,meteohub,2013-02-27 10:52:00,
2013-02-27 05:57:00,28.6,25.7,29.64,NW,314,5.0,20.0,89,0.00,,,0.01,meteohub,2013-02-27 10:57:00,
2013-02-27 06:02:00,28.4,25.5,29.65,NW,314,10.0,20.0,89,0.00,,,0.01,meteohub,2013-02-27 11:02:00,
2013-02-27 06:07:00,28.2,25.7,29.65,NW,314,9.0,20.0,90,0.00,,,0.01,meteohub,2013-02-27 11:07:00,
2013-02-27 06:12:00,28.0,25.5,29.65,NW,314,18.0,24.0,90,0.00,,,0.01,meteohub,2013-02-27 11:12:00,
2013-02-27 06:17:00,28.0,25.5,29.65,NW,314,10.0,24.0,90,0.00,,,0.01,meteohub,2013-02-27 11:17:00,
2013-02-27 06:22:00,27.9,25.5,29.65,NW,314,5.0,23.0,91,0.00,,,0.01,meteohub,2013-02-27 11:22:00,
2013-02-27 06:27:00,27.9,25.5,29.65,NW,314,13.0,23.0,91,0.00,,,0.01,meteohub,2013-02-27 11:27:00,
2013-02-27 06:32:00,27.9,25.9,29.66,NW,314,4.0,24.0,92,0.00,,,0.01,meteohub,2013-02-27 11:32:00,
2013-02-27 06:37:00,27.9,25.5,29.66,NW,314,15.0,24.0,91,0.00,,,0.01,meteohub,2013-02-27 11:37:00,
2013-02-27 06:42:00,27.9,25.5,29.65,NW,314,10.0,24.0,91,0.00,,,0.01,meteohub,2013-02-27 11:42:00,
2013-02-27 06:47:00,27.9,25.5,29.65,NW,314,3.0,22.0,91,0.00,,,0.01,meteohub,2013-02-27 11:47:00,
2013-02-27 06:52:00,27.9,25.5,29.65,NW,314,7.0,22.0,91,0.00,,,0.01,meteohub,2013-02-27 11:52:00,
2013-02-27 06:57:00,27.9,25.5,29.66,NW,314,12.0,21.0,91,0.00,,,0.01,meteohub,2013-02-27 11:57:00,
2013-02-27 07:02:00,27.9,25.5,29.66,NW,314,14.0,21.0,91,0.00,,,0.01,meteohub,2013-02-27 12:02:00,
2013-02-27 07:07:00,27.7,25.3,29.66,NW,314,12.0,24.0,91,0.00,,,0.01,meteohub,2013-02-27 12:07:00,
2013-02-27 07:12:00,27.7,25.3,29.67,NW,314,5.0,24.0,91,0.00,,,0.01,meteohub,2013-02-27 12:12:00,
2013-02-27 07:17:00,27.7,25.3,29.67,NW,314,13.0,24.0,91,0.00,,,0.01,meteohub,2013-02-27 12:17:00,
2013-02-27 07:22:00,27.7,25.3,29.67,NW,314,16.0,23.0,91,0.00,,,0.01,meteohub,2013-02-27 12:22:00,
2013-02-27 07:27:00,27.7,25.3,29.68,NW,314,13.0,32.0,91,0.00,,,0.01,meteohub,2013-02-27 12:27:00,
2013-02-27 07:32:00,27.7,25.7,29.68,NW,314,20.0,32.0,92,0.00,,,0.01,meteohub,2013-02-27 12:32:00,
2013-02-27 07:38:00,27.7,25.7,29.68,NW,314,3.0,32.0,92,0.00,,,0.01,meteohub,2013-02-27 12:38:00,
2013-02-27 07:43:00,27.7,25.7,29.69,NW,314,21.0,24.0,92,0.00,,,0.01,meteohub,2013-02-27 12:43:00,
2013-02-27 07:48:00,27.7,25.7,29.69,NW,314,8.0,23.0,92,0.00,,,0.01,meteohub,2013-02-27 12:48:00,
2013-02-27 07:53:00,27.7,25.7,29.69,NW,314,4.0,23.0,92,0.00,,,0.01,meteohub,2013-02-27 12:53:00,
2013-02-27 07:58:00,27.7,25.7,29.69,NW,314,6.0,23.0,92,0.00,,,0.01,meteohub,2013-02-27 12:58:00,
2013-02-27 08:03:00,27.7,25.7,29.69,NW,314,10.0,22.0,92,0.00,,,0.01,meteohub,2013-02-27 13:03:00,
2013-02-27 08:08:00,27.9,25.9,29.69,NW,314,4.0,22.0,92,0.00,,,0.01,meteohub,2013-02-27 13:08:00,
2013-02-27 08:13:00,27.9,25.9,29.70,NW,314,9.0,22.0,92,0.00,,,0.01,meteohub,2013-02-27 13:13:00,
2013-02-27 08:18:00,27.9,25.9,29.70,NW,314,2.0,15.0,92,0.00,,,0.01,meteohub,2013-02-27 13:18:00,
2013-02-27 08:23:00,28.0,26.1,29.70,NW,314,5.0,15.0,92,0.00,,,0.01,meteohub,2013-02-27 13:23:00,
2013-02-27 08:28:00,28.0,26.1,29.70,NW,314,4.0,13.0,92,0.00,,,0.01,meteohub,2013-02-27 13:28:00,
2013-02-27 08:33:00,28.2,26.2,29.70,NW,314,4.0,13.0,92,0.00,,,0.01,meteohub,2013-02-27 13:33:00,
2013-02-27 08:38:00,28.6,26.2,29.71,NW,314,4.0,13.0,91,0.00,,,0.01,meteohub,2013-02-27 13:38:00,
2013-02-27 08:43:00,28.8,26.4,29.71,NW,314,5.0,13.0,91,0.00,,,0.01,meteohub,2013-02-27 13:43:00,
2013-02-27 08:48:00,28.9,26.4,29.71,NW,314,1.0,11.0,90,0.00,,,0.01,meteohub,2013-02-27 13:48:00,
2013-02-27 08:53:00,29.1,26.6,29.71,NW,314,7.0,10.0,90,0.00,,,0.01,meteohub,2013-02-27 13:53:00,
2013-02-27 08:58:00,29.7,26.8,29.71,NW,314,7.0,10.0,89,0.00,,,0.01,meteohub,2013-02-27 13:58:00,
2013-02-27 09:03:00,29.8,26.8,29.72,NW,314,7.0,11.0,88,0.00,,,0.01,meteohub,2013-02-27 14:03:00,
2013-02-27 09:08:00,29.8,26.8,29.72,NW,314,8.0,15.0,88,0.00,,,0.01,meteohub,2013-02-27 14:08:00,
2013-02-27 09:13:00,29.8,26.8,29.73,NW,314,6.0,15.0,88,0.00,,,0.01,meteohub,2013-02-27 14:13:00,
2013-02-27 09:18:00,29.8,27.0,29.73,NW,314,8.0,17.0,89,0.00,,,0.01,meteohub,2013-02-27 14:18:00,
2013-02-27 09:23:00,30.2,27.3,29.73,NW,314,4.0,17.0,89,0.00,,,0.01,meteohub,2013-02-27 14:23:00,
2013-02-27 09:28:00,30.4,27.3,29.74,NW,314,6.0,18.0,88,0.00,,,0.01,meteohub,2013-02-27 14:28:00,
2013-02-27 09:33:00,30.4,27.3,29.74,NW,314,7.0,18.0,88,0.00,,,0.01,meteohub,2013-02-27 14:33:00,
2013-02-27 09:38:00,30.6,27.5,29.74,NW,314,1.0,21.0,88,0.00,,,0.01,meteohub,2013-02-27 14:38:00,
2013-02-27 09:43:00,30.6,27.5,29.74,NW,314,3.0,21.0,88,0.00,,,0.01,meteohub,2013-02-27 14:43:00,
2013-02-27 09:48:00,30.9,27.5,29.74,NW,314,6.0,21.0,87,0.00,,,0.01,meteohub,2013-02-27 14:48:00,
2013-02-27 09:53:00,31.3,27.9,29.74,NW,314,0.0,18.0,87,0.00,,,0.01,meteohub,2013-02-27 14:53:00,
2013-02-27 09:58:00,31.6,27.9,29.74,NW,314,3.0,13.0,86,0.00,,,0.01,meteohub,2013-02-27 14:58:00,
2013-02-27 10:03:00,32.2,28.4,29.74,NW,314,6.0,12.0,86,0.00,,,0.01,meteohub,2013-02-27 15:03:00,
2013-02-27 10:08:00,32.5,28.6,29.74,NW,314,6.0,13.0,85,0.00,,,0.01,meteohub,2013-02-27 15:08:00,
2013-02-27 10:13:00,32.7,28.4,29.74,NW,314,3.0,13.0,84,0.00,,,0.01,meteohub,2013-02-27 15:13:00,
2013-02-27 10:18:00,32.7,28.2,29.74,NW,312,5.0,20.0,83,0.00,,,0.01,meteohub,2013-02-27 15:18:00,
2013-02-27 10:23:00,33.3,28.6,29.74,NW,316,7.0,20.0,83,0.00,,,0.01,meteohub,2013-02-27 15:23:00,
2013-02-27 10:28:00,33.4,28.8,29.75,NW,320,4.0,20.0,83,0.00,,,0.01,meteohub,2013-02-27 15:28:00,
2013-02-27 10:33:00,33.8,28.9,29.75,WNW,296,6.0,16.0,82,0.00,,,0.01,meteohub,2013-02-27 15:33:00,
2013-02-27 10:38:00,34.3,29.7,29.75,NW,314,7.0,16.0,83,0.00,,,0.01,meteohub,2013-02-27 15:38:00,
2013-02-27 10:43:00,34.5,29.7,29.75,NW,314,9.0,14.0,82,0.00,,,0.01,meteohub,2013-02-27 15:43:00,
2013-02-27 10:48:00,35.1,30.2,29.74,NNW,334,0.0,14.0,82,0.00,,,0.01,meteohub,2013-02-27 15:48:00,
2013-02-27 10:53:00,35.4,30.2,29.75,NW,315,0.0,14.0,81,0.00,,,0.01,meteohub,2013-02-27 15:53:00,
2013-02-27 10:58:00,36.0,30.0,29.74,NW,306,3.0,14.0,79,0.00,,,0.01,meteohub,2013-02-27 15:58:00,
2013-02-27 11:03:00,36.1,30.2,29.75,NW,305,0.0,13.0,79,0.00,,,0.01,meteohub,2013-02-27 16:03:00,
2013-02-27 11:08:00,36.9,30.0,29.75,WNW,292,0.0,13.0,76,0.00,,,0.01,meteohub,2013-02-27 16:08:00,
2013-02-27 11:13:00,36.9,29.7,29.75,NW,311,0.0,11.0,75,0.00,,,0.01,meteohub,2013-02-27 16:13:00,
2013-02-27 11:18:00,37.0,29.5,29.75,NNW,331,7.0,11.0,74,0.00,,,0.01,meteohub,2013-02-27 16:18:00,
2013-02-27 11:23:00,37.2,29.3,29.76,NNW,329,4.0,18.0,73,0.00,,,0.01,meteohub,2013-02-27 16:23:00,
2013-02-27 11:28:00,37.2,29.3,29.76,NW,316,0.0,18.0,73,0.00,,,0.01,meteohub,2013-02-27 16:28:00,
2013-02-27 11:33:00,37.2,29.7,29.76,NNW,329,7.0,18.0,74,0.00,,,0.01,meteohub,2013-02-27 16:33:00,
2013-02-27 11:38:00,37.8,30.2,29.76,NW,309,1.0,16.0,74,0.00,,,0.01,meteohub,2013-02-27 16:38:00,
2013-02-27 11:43:00,38.5,31.3,29.76,WNW,300,1.0,16.0,75,0.00,,,0.01,meteohub,2013-02-27 16:43:00,
2013-02-27 11:48:00,38.7,30.7,29.76,NNW,337,0.0,16.0,73,0.00,,,0.01,meteohub,2013-02-27 16:48:00,
2013-02-27 11:53:00,39.4,31.1,29.76,ESE,120,0.0,12.0,72,0.00,,,0.01,meteohub,2013-02-27 16:53:00,
2013-02-27 11:58:00,39.9,30.9,29.76,NW,326,0.0,9.0,70,0.00,,,0.01,meteohub,2013-02-27 16:58:00,
2013-02-27 12:04:00,41.2,33.8,29.76,NNW,339,0.0,9.0,75,0.00,,,0.01,meteohub,2013-02-27 17:04:00,
2013-02-27 12:09:00,41.5,32.5,29.76,NW,325,4.0,6.0,70,0.00,,,0.01,meteohub,2013-02-27 17:09:00,
2013-02-27 12:14:00,41.5,31.8,29.76,NNW,346,0.0,3.0,68,0.00,,,0.01,meteohub,2013-02-27 17:14:00,
2013-02-27 12:19:00,41.5,32.2,29.76,NNW,341,1.0,6.0,69,0.00,,,0.01,meteohub,2013-02-27 17:19:00,
2013-02-27 12:24:00,41.4,31.3,29.75,NNW,346,0.0,6.0,67,0.00,,,0.01,meteohub,2013-02-27 17:24:00,
2013-02-27 12:29:00,41.5,31.5,29.76,East,91,0.0,10.0,67,0.00,,,0.01,meteohub,2013-02-27 17:29:00,
2013-02-27 12:34:00,41.9,31.8,29.75,North,350,0.0,10.0,67,0.00,,,0.01,meteohub,2013-02-27 17:34:00,
2013-02-27 12:39:00,42.4,31.5,29.75,WNW,287,5.0,10.0,65,0.00,,,0.01,meteohub,2013-02-27 17:39:00,
2013-02-27 12:44:00,42.4,30.7,29.75,NW,304,6.0,13.0,63,0.00,,,0.01,meteohub,2013-02-27 17:44:00,
2013-02-27 12:49:00,42.4,30.4,29.75,NNE,21,0.0,13.0,62,0.00,,,0.01,meteohub,2013-02-27 17:49:00,
2013-02-27 12:54:00,42.4,30.4,29.75,NNW,341,0.0,13.0,62,0.00,,,0.01,meteohub,2013-02-27 17:54:00,
2013-02-27 12:59:00,43.0,31.6,29.75,North,2,0.0,9.0,64,0.00,,,0.01,meteohub,2013-02-27 17:59:00,
2013-02-27 13:04:00,43.3,30.0,29.75,NNW,327,0.0,9.0,59,0.00,,,0.01,meteohub,2013-02-27 18:04:00,
2013-02-27 13:09:00,43.2,31.8,29.75,NNW,332,0.0,9.0,64,0.00,,,0.01,meteohub,2013-02-27 18:09:00,
2013-02-27 13:14:00,44.1,31.1,29.75,NNW,348,0.0,14.0,60,0.00,,,0.01,meteohub,2013-02-27 18:14:00,
2013-02-27 13:19:00,43.9,31.3,29.74,NNW,345,2.0,14.0,61,0.00,,,0.01,meteohub,2013-02-27 18:19:00,
2013-02-27 13:24:00,43.7,30.7,29.75,NNW,331,4.0,10.0,60,0.00,,,0.01,meteohub,2013-02-27 18:24:00,
2013-02-27 13:29:00,43.5,29.7,29.74,North,352,0.0,10.0,58,0.00,,,0.01,meteohub,2013-02-27 18:29:00,
2013-02-27 13:34:00,43.3,31.6,29.74,NW,322,8.0,14.0,63,0.00,,,0.01,meteohub,2013-02-27 18:34:00,
2013-02-27 13:39:00,43.5,30.6,29.74,WNW,300,4.0,14.0,60,0.00,,,0.01,meteohub,2013-02-27 18:39:00,
2013-02-27 13:44:00,43.3,30.0,29.75,NW,308,3.0,14.0,59,0.00,,,0.01,meteohub,2013-02-27 18:44:00,
2013-02-27 13:49:00,43.3,29.5,29.74,WNW,297,13.0,17.0,58,0.00,,,0.01,meteohub,2013-02-27 18:49:00,
2013-02-27 13:54:00,43.7,30.7,29.74,NW,322,9.0,20.0,60,0.00,,,0.01,meteohub,2013-02-27 18:54:00,
2013-02-27 13:59:00,43.7,30.4,29.74,NNW,336,3.0,20.0,59,0.00,,,0.01,meteohub,2013-02-27 18:59:00,
2013-02-27 14:04:00,43.9,30.6,29.75,NW,308,10.0,20.0,59,0.00,,,0.01,meteohub,2013-02-27 19:04:00,
2013-02-27 14:09:00,44.1,29.3,29.74,NW,312,10.0,15.0,56,0.00,,,0.01,meteohub,2013-02-27 19:09:00,
2013-02-27 14:14:00,44.1,29.8,29.74,NW,310,8.0,17.0,57,0.00,,,0.01,meteohub,2013-02-27 19:14:00,
2013-02-27 14:19:00,44.1,30.7,29.74,NW,322,4.0,18.0,59,0.00,,,0.01,meteohub,2013-02-27 19:19:00,
2013-02-27 14:24:00,44.2,29.5,29.73,NNW,336,0.0,18.0,56,0.00,,,0.01,meteohub,2013-02-27 19:24:00,
2013-02-27 14:29:00,44.2,30.7,29.74,NW,310,0.0,18.0,59,0.00,,,0.01,meteohub,2013-02-27 19:29:00,
2013-02-27 14:34:00,45.1,32.0,29.74,NNW,341,3.0,13.0,60,0.00,,,0.01,meteohub,2013-02-27 19:34:00,
2013-02-27 14:39:00,45.3,30.6,29.74,NW,306,0.0,13.0,56,0.00,,,0.01,meteohub,2013-02-27 19:39:00,
2013-02-27 14:44:00,45.0,30.6,29.73,NNW,343,5.0,11.0,57,0.00,,,0.01,meteohub,2013-02-27 19:44:00,
2013-02-27 14:49:00,45.0,30.2,29.73,NW,325,2.0,19.0,56,0.00,,,0.01,meteohub,2013-02-27 19:49:00,
2013-02-27 14:54:00,44.4,28.8,29.73,NNW,327,3.0,19.0,54,0.00,,,0.01,meteohub,2013-02-27 19:54:00,
2013-02-27 14:59:00,45.0,29.3,29.73,NW,319,5.0,19.0,54,0.00,,,0.01,meteohub,2013-02-27 19:59:00,
2013-02-27 15:04:00,45.1,31.3,29.73,North,354,2.0,18.0,58,0.00,,,0.01,meteohub,2013-02-27 20:04:00,
2013-02-27 15:09:00,45.0,29.8,29.73,WNW,291,17.0,17.0,55,0.00,,,0.01,meteohub,2013-02-27 20:09:00,
2013-02-27 15:14:00,44.2,29.1,29.73,NW,325,2.0,17.0,55,0.00,,,0.01,meteohub,2013-02-27 20:14:00,
2013-02-27 15:19:00,44.8,30.0,29.73,NW,316,0.0,18.0,56,0.00,,,0.01,meteohub,2013-02-27 20:19:00,
2013-02-27 15:24:00,45.1,30.7,29.73,NW,305,3.0,18.0,57,0.00,,,0.01,meteohub,2013-02-27 20:24:00,
2013-02-27 15:29:00,45.3,30.6,29.73,NNW,339,3.0,17.0,56,0.00,,,0.01,meteohub,2013-02-27 20:29:00,
2013-02-27 15:34:00,45.1,28.9,29.73,North,3,0.0,11.0,53,0.00,,,0.01,meteohub,2013-02-27 20:34:00,
2013-02-27 15:39:00,45.3,29.1,29.73,NNW,331,6.0,18.0,53,0.00,,,0.01,meteohub,2013-02-27 20:39:00,
2013-02-27 15:44:00,44.4,27.5,29.72,NNW,328,3.0,18.0,51,0.00,,,0.01,meteohub,2013-02-27 20:44:00,
2013-02-27 15:49:00,44.4,27.5,29.73,NW,311,12.0,18.0,51,0.00,,,0.01,meteohub,2013-02-27 20:49:00,
2013-02-27 15:54:00,44.1,27.5,29.73,NNW,341,23.0,23.0,52,0.00,,,0.01,meteohub,2013-02-27 20:54:00,
2013-02-27 15:59:00,43.7,26.2,29.73,NW,320,2.0,19.0,50,0.00,,,0.01,meteohub,2013-02-27 20:59:00,
2013-02-27 16:04:00,43.5,28.0,29.73,NW,322,8.0,25.0,54,0.00,,,0.01,meteohub,2013-02-27 21:04:00,
2013-02-27 16:09:00,43.7,27.7,29.73,WNW,300,11.0,25.0,53,0.00,,,0.01,meteohub,2013-02-27 21:09:00,
2013-02-27 16:14:00,43.9,27.9,29.73,NNW,331,4.0,22.0,53,0.00,,,0.01,meteohub,2013-02-27 21:14:00,
2013-02-27 16:20:00,43.5,26.6,29.73,North,6,0.0,13.0,51,0.00,,,0.01,meteohub,2013-02-27 21:20:00,
2013-02-27 16:25:00,43.9,27.3,29.73,NW,304,0.0,17.0,52,0.00,,,0.01,meteohub,2013-02-27 21:25:00,
2013-02-27 16:30:00,43.9,28.4,29.73,North,354,2.0,19.0,54,0.00,,,0.01,meteohub,2013-02-27 21:30:00,
2013-02-27 16:35:00,43.7,26.2,29.73,North,354,0.0,19.0,50,0.00,,,0.01,meteohub,2013-02-27 21:35:00,
2013-02-27 16:40:00,43.2,26.8,29.72,NNW,331,6.0,16.0,52,0.00,,,0.01,meteohub,2013-02-27 21:40:00,
2013-02-27 16:45:00,43.2,26.8,29.72,WNW,302,20.0,20.0,52,0.00,,,0.01,meteohub,2013-02-27 21:45:00,
2013-02-27 16:50:00,43.2,27.7,29.73,NNW,340,1.0,16.0,54,0.00,,,0.01,meteohub,2013-02-27 21:50:00,
2013-02-27 16:55:00,43.3,27.0,29.72,NW,325,0.0,24.0,52,0.00,,,0.01,meteohub,2013-02-27 21:55:00,
2013-02-27 17:00:00,43.5,27.5,29.73,NNE,21,0.0,24.0,53,0.00,,,0.01,meteohub,2013-02-27 22:00:00,
2013-02-27 17:05:00,43.5,27.5,29.73,NNW,334,1.0,17.0,53,0.00,,,0.01,meteohub,2013-02-27 22:05:00,
2013-02-27 17:10:00,43.3,27.3,29.73,WNW,293,10.0,12.0,53,0.00,,,0.01,meteohub,2013-02-27 22:10:00,
2013-02-27 17:15:00,43.0,27.5,29.73,NW,318,4.0,20.0,54,0.00,,,0.01,meteohub,2013-02-27 22:15:00,
2013-02-27 17:20:00,42.6,27.5,29.73,North,354,0.0,20.0,55,0.00,,,0.01,meteohub,2013-02-27 22:20:00,
2013-02-27 17:25:00,42.4,28.2,29.73,NNW,342,4.0,20.0,57,0.00,,,0.01,meteohub,2013-02-27 22:25:00,
2013-02-27 17:30:00,42.4,28.2,29.73,NW,307,14.0,18.0,57,0.00,,,0.01,meteohub,2013-02-27 22:30:00,
2013-02-27 17:35:00,42.1,28.4,29.73,NW,314,4.0,15.0,58,0.00,,,0.01,meteohub,2013-02-27 22:35:00,
2013-02-27 17:40:00,41.7,28.0,29.73,North,358,0.0,14.0,58,0.00,,,0.01,meteohub,2013-02-27 22:40:00,
2013-02-27 17:45:00,41.7,28.9,29.74,NW,323,0.0,14.0,60,0.00,,,0.01,meteohub,2013-02-27 22:45:00,
2013-02-27 17:50:00,41.4,28.6,29.73,NNW,328,0.0,15.0,60,0.00,,,0.01,meteohub,2013-02-27 22:50:00,
2013-02-27 17:55:00,41.0,28.6,29.74,NW,316,4.0,15.0,61,0.00,,,0.01,meteohub,2013-02-27 22:55:00,
2013-02-27 18:00:00,40.5,28.9,29.74,NNW,344,0.0,15.0,63,0.00,,,0.01,meteohub,2013-02-27 23:00:00,
2013-02-27 18:05:00,40.3,29.1,29.74,NNW,329,0.0,10.0,64,0.00,,,0.01,meteohub,2013-02-27 23:05:00,
2013-02-27 18:10:00,39.9,29.1,29.74,NNW,329,0.0,11.0,65,0.00,,,0.01,meteohub,2013-02-27 23:10:00,
2013-02-27 18:15:00,39.6,29.5,29.73,NW,314,0.0,11.0,67,0.00,,,0.01,meteohub,2013-02-27 23:15:00,
2013-02-27 18:20:00,39.4,29.3,29.74,NNW,335,6.0,11.0,67,0.00,,,0.01,meteohub,2013-02-27 23:20:00,
2013-02-27 18:25:00,39.0,28.9,29.74,WNW,299,6.0,15.0,67,0.00,,,0.01,meteohub,2013-02-27 23:25:00,
2013-02-27 18:30:00,39.0,29.3,29.75,North,349,0.0,15.0,68,0.00,,,0.01,meteohub,2013-02-27 23:30:00,
2013-02-27 18:35:00,38.8,29.1,29.75,WNW,297,7.0,15.0,68,0.00,,,0.01,meteohub,2013-02-27 23:35:00,
2013-02-27 18:40:00,38.7,28.9,29.75,NW,316,1.0,15.0,68,0.00,,,0.01,meteohub,2013-02-27 23:40:00,
2013-02-27 18:45:00,38.5,28.8,29.75,NNW,341,0.0,14.0,68,0.00,,,0.01,meteohub,2013-02-27 23:45:00,
2013-02-27 18:50:00,38.1,28.6,29.74,WNW,300,7.0,16.0,68,0.00,,,0.01,meteohub,2013-02-27 23:50:00,
2013-02-27 18:55:00,37.9,28.8,29.75,North,349,0.0,16.0,69,0.00,,,0.01,meteohub,2013-02-27 23:55:00,
2013-02-27 19:00:00,37.9,28.8,29.74,NW,325,5.0,19.0,69,0.00,,,0.01,meteohub,2013-02-28 00:00:00,
2013-02-27 19:05:00,37.9,28.4,29.74,WNW,290,8.0,19.0,68,0.00,,,0.00,meteohub,2013-02-28 00:05:00,
2013-02-27 19:10:00,37.9,28.4,29.75,NNW,335,5.0,19.0,68,0.00,,,0.00,meteohub,2013-02-28 00:10:00,
2013-02-27 19:15:00,37.9,28.8,29.74,NW,312,0.0,17.0,69,0.00,,,0.00,meteohub,2013-02-28 00:15:00,
2013-02-27 19:20:00,37.9,29.1,29.74,NNW,333,0.0,17.0,70,0.00,,,0.00,meteohub,2013-02-28 00:20:00,
2013-02-27 19:25:00,37.6,29.3,29.74,NW,312,7.0,23.0,72,0.00,,,0.00,meteohub,2013-02-28 00:25:00,
2013-02-27 19:30:00,37.2,29.3,29.75,NW,325,4.0,23.0,73,0.00,,,0.00,meteohub,2013-02-28 00:30:00,
2013-02-27 19:35:00,37.0,29.8,29.75,NW,314,20.0,23.0,75,0.00,,,0.00,meteohub,2013-02-28 00:35:00,
2013-02-27 19:40:00,36.9,30.4,29.74,NNW,347,4.0,20.0,77,0.00,,,0.00,meteohub,2013-02-28 00:40:00,
2013-02-27 19:46:00,36.3,30.4,29.74,NNW,329,3.0,20.0,79,0.00,,,0.00,meteohub,2013-02-28 00:46:00,
2013-02-27 19:51:00,36.1,30.2,29.75,NW,324,5.0,20.0,79,0.00,,,0.00,meteohub,2013-02-28 00:51:00,
2013-02-27 19:56:00,36.1,30.6,29.74,WNW,295,1.0,16.0,80,0.00,,,0.00,meteohub,2013-02-28 00:56:00,
2013-02-27 20:01:00,36.1,30.6,29.74,NNW,333,2.0,16.0,80,0.00,,,0.00,meteohub,2013-02-28 01:01:00,
2013-02-27 20:06:00,36.0,30.4,29.74,WNW,300,2.0,14.0,80,0.00,,,0.00,meteohub,2013-02-28 01:06:00,
2013-02-27 20:11:00,36.0,30.7,29.74,NW,316,0.0,14.0,81,0.00,,,0.00,meteohub,2013-02-28 01:11:00,
2013-02-27 20:16:00,35.8,30.6,29.74,North,356,0.0,11.0,81,0.00,,,0.00,meteohub,2013-02-28 01:16:00,
2013-02-27 20:21:00,35.8,30.6,29.74,NW,308,5.0,13.0,81,0.00,,,0.00,meteohub,2013-02-28 01:21:00,
2013-02-27 20:26:00,35.8,30.6,29.74,NW,313,0.0,13.0,81,0.00,,,0.00,meteohub,2013-02-28 01:26:00,
2013-02-27 20:31:00,35.2,30.4,29.74,NNW,327,7.0,23.0,82,0.00,,,0.00,meteohub,2013-02-28 01:31:00,
2013-02-27 20:36:00,35.1,30.4,29.74,NW,304,7.0,23.0,83,0.00,,,0.00,meteohub,2013-02-28 01:36:00,
2013-02-27 20:41:00,34.9,30.2,29.74,NW,316,7.0,23.0,83,0.00,,,0.00,meteohub,2013-02-28 01:41:00,
2013-02-27 20:46:00,34.7,29.8,29.74,NW,306,13.0,20.0,82,0.00,,,0.00,meteohub,2013-02-28 01:46:00,
2013-02-27 20:51:00,34.3,30.4,29.74,WNW,302,2.0,31.0,85,0.00,,,0.00,meteohub,2013-02-28 01:51:00,
2013-02-27 20:56:00,34.0,30.6,29.74,NNW,327,9.0,31.0,87,0.00,,,0.00,meteohub,2013-02-28 01:56:00,
2013-02-27 21:01:00,33.4,30.6,29.75,NNW,345,0.0,31.0,89,0.00,,,0.00,meteohub,2013-02-28 02:01:00,
2013-02-27 21:06:00,33.3,30.6,29.74,NNW,327,3.0,13.0,90,0.00,,,0.00,meteohub,2013-02-28 02:06:00,
2013-02-27 21:11:00,33.3,30.4,29.75,WNW,295,9.0,18.0,89,0.00,,,0.00,meteohub,2013-02-28 02:11:00,
2013-02-27 21:16:00,33.4,30.7,29.74,NNW,335,0.0,18.0,90,0.00,,,0.00,meteohub,2013-02-28 02:16:00,
2013-02-27 21:21:00,33.4,30.7,29.75,WNW,301,0.0,18.0,90,0.00,,,0.00,meteohub,2013-02-28 02:21:00,
2013-02-27 21:26:00,33.4,30.7,29.75,WNW,298,1.0,12.0,90,0.00,,,0.00,meteohub,2013-02-28 02:26:00,
2013-02-27 21:31:00,33.3,30.6,29.74,NW,320,0.0,9.0,90,0.00,,,0.00,meteohub,2013-02-28 02:31:00,
2013-02-27 21:36:00,33.3,30.6,29.75,NNW,328,0.0,5.0,90,0.00,,,0.00,meteohub,2013-02-28 02:36:00,
2013-02-27 21:41:00,33.4,30.7,29.75,WNW,298,1.0,12.0,90,0.00,,,0.00,meteohub,2013-02-28 02:41:00,
2013-02-27 21:46:00,33.4,30.7,29.74,West,277,0.0,12.0,90,0.00,,,0.00,meteohub,2013-02-28 02:46:00,
2013-02-27 21:51:00,33.4,30.6,29.75,NW,314,2.0,13.0,89,0.00,,,0.00,meteohub,2013-02-28 02:51:00,
2013-02-27 21:56:00,33.4,30.6,29.74,NW,309,7.0,13.0,89,0.00,,,0.00,meteohub,2013-02-28 02:56:00,
2013-02-27 22:01:00,33.4,30.6,29.74,NW,322,3.0,13.0,89,0.00,,,0.00,meteohub,2013-02-28 03:01:00,
2013-02-27 22:06:00,33.4,30.2,29.74,NW,316,0.0,17.0,88,0.00,,,0.00,meteohub,2013-02-28 03:06:00,
2013-02-27 22:11:00,33.4,30.2,29.74,NW,313,3.0,17.0,88,0.00,,,0.00,meteohub,2013-02-28 03:11:00,
2013-02-27 22:16:00,33.4,30.2,29.74,North,356,2.0,17.0,88,0.00,,,0.00,meteohub,2013-02-28 03:16:00,
2013-02-27 22:21:00,33.4,30.2,29.74,NW,314,0.0,13.0,88,0.00,,,0.00,meteohub,2013-02-28 03:21:00,
2013-02-27 22:26:00,33.4,30.0,29.74,NNW,338,8.0,13.0,87,0.00,,,0.00,meteohub,2013-02-28 03:26:00,
2013-02-27 22:31:00,33.4,30.0,29.74,NW,309,9.0,20.0,87,0.00,,,0.00,meteohub,2013-02-28 03:31:00,
2013-02-27 22:36:00,33.4,29.7,29.74,NW,317,3.0,20.0,86,0.00,,,0.00,meteohub,2013-02-28 03:36:00,
2013-02-27 22:41:00,33.3,29.3,29.73,NW,316,14.0,23.0,85,0.00,,,0.00,meteohub,2013-02-28 03:41:00,
2013-02-27 22:46:00,33.4,29.1,29.73,NNW,329,3.0,23.0,84,0.00,,,0.00,meteohub,2013-02-28 03:46:00,
2013-02-27 22:51:00,33.3,28.9,29.73,NW,308,9.0,25.0,84,0.00,,,0.00,meteohub,2013-02-28 03:51:00,
2013-02-27 22:56:00,33.1,28.8,29.73,NW,306,9.0,25.0,84,0.00,,,0.00,meteohub,2013-02-28 03:56:00,
2013-02-27 23:01:00,33.1,29.1,29.73,NW,310,13.0,26.0,85,0.00,,,0.00,meteohub,2013-02-28 04:01:00,
2013-02-27 23:07:00,33.1,28.4,29.73,NNW,327,12.0,29.0,83,0.00,,,0.00,meteohub,2013-02-28 04:07:00,
2013-02-27 23:12:00,32.9,28.2,29.72,NW,314,6.0,29.0,83,0.00,,,0.00,meteohub,2013-02-28 04:12:00,
2013-02-27 23:17:00,32.7,28.2,29.72,NW,310,19.0,29.0,83,0.00,,,0.00,meteohub,2013-02-28 04:17:00,
2013-02-27 23:22:00,32.7,27.9,29.72,NW,314,15.0,30.0,82,0.00,,,0.00,meteohub,2013-02-28 04:22:00,
2013-02-27 23:27:00,32.7,27.5,29.72,NNW,335,6.0,30.0,81,0.00,,,0.00,meteohub,2013-02-28 04:27:00,
2013-02-27 23:32:00,32.7,27.9,29.72,WNW,302,18.0,30.0,82,0.00,,,0.00,meteohub,2013-02-28 04:32:00,
2013-02-27 23:37:00,32.5,27.7,29.72,WNW,301,10.0,25.0,82,0.00,,,0.00,meteohub,2013-02-28 04:37:00,
2013-02-27 23:42:00,32.5,27.3,29.72,WNW,302,14.0,25.0,81,0.00,,,0.00,meteohub,2013-02-28 04:42:00,
2013-02-27 23:47:00,32.4,27.1,29.72,NNW,344,1.0,28.0,81,0.00,,,0.00,meteohub,2013-02-28 04:47:00,
2013-02-27 23:52:00,32.4,27.1,29.71,NNW,338,7.0,28.0,81,0.00,,,0.00,meteohub,2013-02-28 04:52:00,
2013-02-27 23:57:00,32.4,27.1,29.71,NW,305,4.0,28.0,81,0.00,,,0.00,meteohub,2013-02-28 04:57:00,